Year,Month,Day,Hour,Minute,Value (Times are PST for temperature in C)
2016,02,14,08,42,7.90
2016,02,14,08,43,7.90
2016,02,14,08,44,7.90
2016,02,14,08,45,7.90
2016,02,14,08,46,7.90
2016,02,14,08,47,7.90
2016,02,14,08,48,7.90
2016,02,14,08,49,7.90
2016,02,14,08,50,7.90
2016,02,14,08,51,7.90
2016,02,14,08,52,8.00
2016,02,14,08,53,8.00
2016,02,14,08,54,8.00
2016,02,14,08,55,8.00
2016,02,14,08,56,8.00
2016,02,14,08,57,8.00
2016,02,14,08,58,8.00
2016,02,14,08,59,8.00
2016,02,14,09,00,8.10
2016,02,14,09,01,8.10
2016,02,14,09,02,8.10
2016,02,14,09,03,8.10
2016,02,14,09,04,8.10
2016,02,14,09,05,8.10
2016,02,14,09,06,8.10
2016,02,14,09,07,8.10
2016,02,14,09,08,8.20
2016,02,14,09,09,8.20
2016,02,14,09,10,8.20
2016,02,14,09,11,8.20
2016,02,14,09,12,8.20
2016,02,14,09,13,8.20
2016,02,14,09,14,8.20
2016,02,14,09,15,8.20
2016,02,14,09,16,8.20
2016,02,14,09,17,8.20
2016,02,14,09,18,8.20
2016,02,14,09,19,8.20
2016,02,14,09,20,8.20
2016,02,14,09,21,8.20
2016,02,14,09,22,8.20
2016,02,14,09,23,8.30
2016,02,14,09,24,8.30
2016,02,14,09,25,8.30
2016,02,14,09,26,8.30
2016,02,14,09,27,8.30
2016,02,14,09,28,8.30
2016,02,14,09,29,8.30
2016,02,14,09,30,8.30
2016,02,14,09,31,8.30
2016,02,14,09,32,8.40
2016,02,14,09,33,8.40
2016,02,14,09,34,8.40
2016,02,14,09,35,8.40
2016,02,14,09,36,8.40
2016,02,14,09,37,8.40
2016,02,14,09,38,8.40
2016,02,14,09,39,8.40
2016,02,14,09,40,8.50
2016,02,14,09,41,8.40
2016,02,14,09,42,8.50
2016,02,14,09,43,8.50
2016,02,14,09,44,8.50
2016,02,14,09,45,8.50
2016,02,14,09,46,8.50
2016,02,14,09,47,8.50
2016,02,14,09,48,8.50
2016,02,14,09,49,8.50
2016,02,14,09,50,8.50
2016,02,14,09,51,8.50
2016,02,14,09,52,8.50
2016,02,14,09,53,8.50
2016,02,14,09,54,8.50
2016,02,14,09,55,8.60
2016,02,14,09,56,8.60
2016,02,14,09,57,8.60
2016,02,14,09,58,8.50
2016,02,14,09,59,8.50
2016,02,14,10,00,8.50
2016,02,14,10,01,8.50
2016,02,14,10,02,8.50
2016,02,14,10,03,8.50
2016,02,14,10,04,8.50
2016,02,14,10,05,8.50
2016,02,14,10,06,8.50
2016,02,14,10,07,8.50
2016,02,14,10,08,8.50
2016,02,14,10,09,8.50
2016,02,14,10,10,8.50
2016,02,14,10,11,8.60
2016,02,14,10,12,8.60
2016,02,14,10,13,8.60
2016,02,14,10,14,8.60
2016,02,14,10,15,8.60
2016,02,14,10,16,8.60
2016,02,14,10,17,8.60
2016,02,14,10,18,8.60
2016,02,14,10,19,8.60
2016,02,14,10,20,8.70
2016,02,14,10,21,8.60
2016,02,14,10,22,8.60
2016,02,14,10,23,8.60
2016,02,14,10,24,8.60
2016,02,14,10,25,8.60
2016,02,14,10,26,8.60
2016,02,14,10,27,8.60
2016,02,14,10,28,8.60
2016,02,14,10,29,8.60
2016,02,14,10,30,8.60
2016,02,14,10,31,8.60
2016,02,14,10,32,8.60
2016,02,14,10,33,8.60
2016,02,14,10,34,8.60
2016,02,14,10,35,8.60
2016,02,14,10,36,8.60
2016,02,14,10,37,8.70
2016,02,14,10,38,8.70
2016,02,14,10,39,8.70
2016,02,14,10,40,8.70
2016,02,14,10,41,8.70
2016,02,14,10,42,8.70
2016,02,14,10,43,8.70
2016,02,14,10,44,8.70
2016,02,14,10,45,8.70
2016,02,14,10,46,8.70
2016,02,14,10,47,8.60
2016,02,14,10,48,8.60
2016,02,14,10,49,8.60
2016,02,14,10,50,8.60
2016,02,14,10,51,8.60
2016,02,14,10,52,8.60
2016,02,14,10,53,8.60
2016,02,14,10,54,8.60
2016,02,14,10,55,8.70
2016,02,14,10,56,8.70
2016,02,14,10,57,8.70
2016,02,14,10,58,8.70
2016,02,14,10,59,8.70
2016,02,14,11,00,8.60
2016,02,14,11,01,8.70
2016,02,14,11,02,8.70
2016,02,14,11,03,8.70
2016,02,14,11,04,8.70
2016,02,14,11,05,8.70
2016,02,14,11,06,8.70
2016,02,14,11,07,8.70
2016,02,14,11,08,8.70
2016,02,14,11,09,8.70
2016,02,14,11,10,8.70
2016,02,14,11,11,8.70
2016,02,14,11,12,8.70
2016,02,14,11,13,8.70
2016,02,14,11,14,8.70
2016,02,14,11,15,8.70
2016,02,14,11,16,8.70
2016,02,14,11,17,8.70
2016,02,14,11,18,8.70
2016,02,14,11,19,8.70
2016,02,14,11,20,8.70
2016,02,14,11,21,8.70
2016,02,14,11,22,8.70
2016,02,14,11,23,8.70
2016,02,14,11,24,8.70
2016,02,14,11,25,8.80
2016,02,14,11,26,8.80
2016,02,14,11,27,8.80
2016,02,14,11,28,8.80
2016,02,14,11,29,8.80
2016,02,14,11,30,8.80
2016,02,14,11,31,8.80
2016,02,14,11,32,8.80
2016,02,14,11,33,8.80
2016,02,14,11,34,8.80
2016,02,14,11,35,8.80
2016,02,14,11,36,8.80
2016,02,14,11,37,8.80
2016,02,14,11,38,8.80
2016,02,14,11,39,8.80
2016,02,14,11,40,8.80
2016,02,14,11,41,8.80
2016,02,14,11,42,8.90
2016,02,14,11,43,8.90
2016,02,14,11,44,8.90
2016,02,14,11,45,8.90
2016,02,14,11,46,8.90
2016,02,14,11,47,8.90
2016,02,14,11,48,8.90
2016,02,14,11,49,8.90
2016,02,14,11,50,8.90
2016,02,14,11,51,8.80
2016,02,14,11,52,8.80
2016,02,14,11,53,8.90
2016,02,14,11,54,8.90
2016,02,14,11,55,8.90
2016,02,14,11,56,8.90
2016,02,14,11,57,8.90
2016,02,14,11,58,8.90
2016,02,14,11,59,8.90
2016,02,14,12,00,8.90
2016,02,14,12,01,8.90
2016,02,14,12,02,9.00
2016,02,14,12,03,9.00
2016,02,14,12,04,9.00
2016,02,14,12,05,9.00
2016,02,14,12,06,9.10
2016,02,14,12,07,9.10
2016,02,14,12,08,9.10
2016,02,14,12,09,9.10
2016,02,14,12,10,9.10
2016,02,14,12,11,9.10
2016,02,14,12,12,9.10
2016,02,14,12,13,9.10
2016,02,14,12,14,9.10
2016,02,14,12,15,9.10
2016,02,14,12,16,9.00
2016,02,14,12,17,9.00
2016,02,14,12,18,9.00
2016,02,14,12,19,9.00
2016,02,14,12,20,9.00
2016,02,14,12,21,9.10
2016,02,14,12,22,9.10
2016,02,14,12,23,9.10
2016,02,14,12,24,9.20
2016,02,14,12,25,9.20
2016,02,14,12,26,9.20
2016,02,14,12,27,9.20
2016,02,14,12,28,9.10
2016,02,14,12,29,9.20
2016,02,14,12,30,9.20
2016,02,14,12,31,9.20
2016,02,14,12,32,9.20
2016,02,14,12,33,9.20
2016,02,14,12,34,9.30
2016,02,14,12,35,9.30
2016,02,14,12,36,9.30
2016,02,14,12,37,9.30
2016,02,14,12,38,9.40
2016,02,14,12,39,9.40
2016,02,14,12,40,9.40
2016,02,14,12,41,9.40
2016,02,14,12,42,9.40
2016,02,14,12,43,9.40
2016,02,14,12,44,9.40
2016,02,14,12,45,9.50
2016,02,14,12,46,9.50
2016,02,14,12,47,9.50
2016,02,14,12,48,9.50
2016,02,14,12,49,9.50
2016,02,14,12,50,9.50
2016,02,14,12,51,9.60
2016,02,14,12,52,9.60
2016,02,14,12,53,9.60
2016,02,14,12,54,9.60
2016,02,14,12,55,9.60
2016,02,14,12,56,9.60
2016,02,14,12,57,9.60
2016,02,14,12,58,9.60
2016,02,14,12,59,9.60
2016,02,14,13,00,9.60
2016,02,14,13,01,9.60
2016,02,14,13,02,9.60
2016,02,14,13,03,9.60
2016,02,14,13,04,9.60
2016,02,14,13,05,9.60
2016,02,14,13,06,9.60
2016,02,14,13,07,9.70
2016,02,14,13,08,9.70
2016,02,14,13,09,9.70
2016,02,14,13,10,9.70
2016,02,14,13,11,9.70
2016,02,14,13,12,9.80
2016,02,14,13,13,9.80
2016,02,14,13,14,9.80
2016,02,14,13,15,9.80
2016,02,14,13,16,9.80
2016,02,14,13,17,9.80
2016,02,14,13,18,9.90
2016,02,14,13,19,9.90
2016,02,14,13,20,9.90
2016,02,14,13,21,9.90
2016,02,14,13,22,9.90
2016,02,14,13,23,10.00
2016,02,14,13,24,10.00
2016,02,14,13,25,10.00
2016,02,14,13,26,10.00
2016,02,14,13,27,10.00
2016,02,14,13,28,10.00
2016,02,14,13,29,10.10
2016,02,14,13,30,10.10
2016,02,14,13,31,10.10
2016,02,14,13,32,10.10
2016,02,14,13,33,10.10
2016,02,14,13,34,10.10
2016,02,14,13,35,10.10
2016,02,14,13,36,10.20
2016,02,14,13,37,10.20
2016,02,14,13,38,10.20
2016,02,14,13,39,10.20
2016,02,14,13,40,10.20
2016,02,14,13,41,10.20
2016,02,14,13,42,10.20
2016,02,14,13,43,10.20
2016,02,14,13,44,10.20
2016,02,14,13,45,10.20
2016,02,14,13,46,10.20
2016,02,14,13,47,10.20
2016,02,14,13,48,10.20
2016,02,14,13,49,10.20
2016,02,14,13,50,10.30
2016,02,14,13,51,10.30
2016,02,14,13,52,10.30
2016,02,14,13,53,10.30
2016,02,14,13,54,10.30
2016,02,14,13,55,10.30
2016,02,14,13,56,10.30
2016,02,14,13,57,10.40
2016,02,14,13,58,10.40
2016,02,14,13,59,10.40
2016,02,14,14,00,10.40
2016,02,14,14,01,10.40
2016,02,14,14,02,10.40
2016,02,14,14,03,10.40
2016,02,14,14,04,10.40
2016,02,14,14,05,10.50
2016,02,14,14,06,10.50
2016,02,14,14,07,10.50
2016,02,14,14,08,10.50
2016,02,14,14,09,10.60
2016,02,14,14,10,10.60
2016,02,14,14,11,10.60
2016,02,14,14,12,10.60
2016,02,14,14,13,10.60
2016,02,14,14,14,10.70
2016,02,14,14,15,10.70
2016,02,14,14,16,10.70
2016,02,14,14,17,10.70
2016,02,14,14,18,10.70
2016,02,14,14,19,10.70
2016,02,14,14,20,10.70
2016,02,14,14,21,10.80
2016,02,14,14,22,10.80
2016,02,14,14,23,10.90
2016,02,14,14,24,10.90
2016,02,14,14,25,11.00
2016,02,14,14,26,11.00
2016,02,14,14,27,11.10
2016,02,14,14,28,11.20
2016,02,14,14,29,11.30
2016,02,14,14,30,11.40
2016,02,14,14,31,11.40
2016,02,14,14,32,11.40
2016,02,14,14,33,11.40
2016,02,14,14,34,11.40
2016,02,14,14,35,11.40
2016,02,14,14,36,11.50
2016,02,14,14,37,11.50
2016,02,14,14,38,11.50
2016,02,14,14,39,11.60
2016,02,14,14,40,11.60
2016,02,14,14,41,11.60
2016,02,14,14,42,11.60
2016,02,14,14,43,11.60
2016,02,14,14,44,11.60
2016,02,14,14,45,11.60
2016,02,14,14,46,11.60
2016,02,14,14,47,11.70
2016,02,14,14,48,11.70
2016,02,14,14,49,11.70
2016,02,14,14,50,11.70
2016,02,14,14,51,11.80
2016,02,14,14,52,11.80
2016,02,14,14,53,11.80
2016,02,14,14,54,11.90
2016,02,14,14,55,11.90
2016,02,14,14,56,11.90
2016,02,14,14,57,12.00
2016,02,14,14,58,12.10
2016,02,14,14,59,12.10
2016,02,14,15,00,12.20
2016,02,14,15,01,12.20
2016,02,14,15,02,12.20
2016,02,14,15,03,12.30
2016,02,14,15,04,12.30
2016,02,14,15,05,12.40
2016,02,14,15,06,12.40
2016,02,14,15,07,12.40
2016,02,14,15,08,12.40
2016,02,14,15,09,12.40
2016,02,14,15,10,12.50
2016,02,14,15,11,12.50
2016,02,14,15,12,12.50
2016,02,14,15,13,12.50
2016,02,14,15,14,12.60
2016,02,14,15,15,12.60
2016,02,14,15,16,12.60
2016,02,14,15,17,12.60
2016,02,14,15,18,12.70
2016,02,14,15,19,12.70
2016,02,14,15,20,12.70
2016,02,14,15,21,12.70
2016,02,14,15,22,12.70
2016,02,14,15,23,12.70
2016,02,14,15,24,12.70
2016,02,14,15,25,12.70
2016,02,14,15,26,12.70
2016,02,14,15,27,12.70
2016,02,14,15,28,12.70
2016,02,14,15,29,12.70
2016,02,14,15,30,12.60
2016,02,14,15,31,12.60
2016,02,14,15,32,12.50
2016,02,14,15,33,12.50
2016,02,14,15,34,12.40
2016,02,14,15,35,12.40
2016,02,14,15,36,12.40
2016,02,14,15,37,12.40
2016,02,14,15,38,12.40
2016,02,14,15,39,12.40
2016,02,14,15,40,12.40
2016,02,14,15,41,12.50
2016,02,14,15,42,12.50
2016,02,14,15,43,12.60
2016,02,14,15,44,12.60
2016,02,14,15,45,12.60
2016,02,14,15,46,12.60
2016,02,14,15,47,12.70
2016,02,14,15,48,12.70
2016,02,14,15,49,12.70
2016,02,14,15,50,12.70
2016,02,14,15,51,12.70
2016,02,14,15,52,12.80
2016,02,14,15,53,12.80
2016,02,14,15,54,12.80
2016,02,14,15,55,12.90
2016,02,14,15,56,12.90
2016,02,14,15,57,12.90
2016,02,14,15,58,13.00
2016,02,14,15,59,13.00
2016,02,14,16,00,13.00
2016,02,14,16,01,13.00
2016,02,14,16,02,13.10
2016,02,14,16,03,13.10
2016,02,14,16,04,13.10
2016,02,14,16,05,13.10
2016,02,14,16,06,13.10
2016,02,14,16,07,13.10
2016,02,14,16,08,13.10
2016,02,14,16,09,13.10
2016,02,14,16,10,13.00
2016,02,14,16,11,13.00
2016,02,14,16,12,13.00
2016,02,14,16,13,12.90
2016,02,14,16,14,12.90
2016,02,14,16,15,12.90
2016,02,14,16,16,12.90
2016,02,14,16,17,12.90
2016,02,14,16,18,12.90
2016,02,14,16,19,12.90
2016,02,14,16,20,12.90
2016,02,14,16,21,12.90
2016,02,14,16,22,12.80
2016,02,14,16,23,12.80
2016,02,14,16,24,12.80
2016,02,14,16,25,12.80
2016,02,14,16,26,12.80
2016,02,14,16,27,12.80
2016,02,14,16,28,12.80
2016,02,14,16,29,12.80
2016,02,14,16,30,12.80
2016,02,14,16,31,12.80
2016,02,14,16,32,12.70
2016,02,14,16,33,12.70
2016,02,14,16,34,12.70
2016,02,14,16,35,12.70
2016,02,14,16,36,12.60
2016,02,14,16,37,12.60
2016,02,14,16,38,12.60
2016,02,14,16,39,12.60
2016,02,14,16,40,12.60
2016,02,14,16,41,12.60
2016,02,14,16,42,12.50
2016,02,14,16,43,12.50
2016,02,14,16,44,12.50
2016,02,14,16,45,12.50
2016,02,14,16,46,12.50
2016,02,14,16,47,12.50
2016,02,14,16,48,12.40
2016,02,14,16,49,12.40
2016,02,14,16,50,12.40
2016,02,14,16,51,12.40
2016,02,14,16,52,12.40
2016,02,14,16,53,12.40
2016,02,14,16,54,12.30
2016,02,14,16,55,12.30
2016,02,14,16,56,12.30
2016,02,14,16,57,12.30
2016,02,14,16,58,12.30
2016,02,14,16,59,12.30
2016,02,14,17,00,12.20
2016,02,14,17,01,12.20
2016,02,14,17,02,12.20
2016,02,14,17,03,12.20
2016,02,14,17,04,12.20
2016,02,14,17,05,12.20
2016,02,14,17,06,12.20
2016,02,14,17,07,12.20
2016,02,14,17,08,12.20
2016,02,14,17,09,12.20
2016,02,14,17,10,12.20
2016,02,14,17,11,12.20
2016,02,14,17,12,12.20
2016,02,14,17,13,12.20
2016,02,14,17,14,12.20
2016,02,14,17,15,12.20
2016,02,14,17,16,12.20
2016,02,14,17,17,12.10
2016,02,14,17,18,12.20
2016,02,14,17,19,12.20
2016,02,14,17,20,12.10
2016,02,14,17,21,12.10
2016,02,14,17,22,12.10
2016,02,14,17,23,12.10
2016,02,14,17,24,12.10
2016,02,14,17,25,12.10
2016,02,14,17,26,12.10
2016,02,14,17,27,12.10
2016,02,14,17,28,12.00
2016,02,14,17,29,12.00
2016,02,14,17,30,12.00
2016,02,14,17,31,11.90
2016,02,14,17,32,11.90
2016,02,14,17,33,11.90
2016,02,14,17,34,11.90
2016,02,14,17,35,11.80
2016,02,14,17,36,11.80
2016,02,14,17,37,11.80
2016,02,14,17,38,11.80
2016,02,14,17,39,11.80
2016,02,14,17,40,11.80
2016,02,14,17,41,11.80
2016,02,14,17,42,11.80
2016,02,14,17,43,11.80
2016,02,14,17,44,11.80
2016,02,14,17,45,11.80
2016,02,14,17,46,11.80
2016,02,14,17,47,11.80
2016,02,14,17,48,11.80
2016,02,14,17,49,11.80
2016,02,14,17,50,11.80
2016,02,14,17,51,11.80
2016,02,14,17,52,11.80
2016,02,14,17,53,11.80
2016,02,14,17,54,11.90
2016,02,14,17,55,11.90
2016,02,14,17,56,11.90
2016,02,14,17,57,11.90
2016,02,14,17,58,11.90
2016,02,14,17,59,11.80
2016,02,14,18,00,11.80
2016,02,14,18,01,11.80
2016,02,14,18,02,11.80
2016,02,14,18,03,11.80
2016,02,14,18,04,11.80
2016,02,14,18,05,11.80
2016,02,14,18,06,11.80
2016,02,14,18,07,11.80
2016,02,14,18,08,11.80
2016,02,14,18,09,11.70
2016,02,14,18,10,11.70
2016,02,14,18,11,11.70
2016,02,14,18,12,11.70
2016,02,14,18,13,11.70
2016,02,14,18,14,11.70
2016,02,14,18,15,11.70
2016,02,14,18,16,11.70
2016,02,14,18,17,11.70
2016,02,14,18,18,11.60
2016,02,14,18,19,11.60
2016,02,14,18,20,11.60
2016,02,14,18,21,11.50
2016,02,14,18,22,11.50
2016,02,14,18,23,11.40
2016,02,14,18,24,11.40
2016,02,14,18,25,11.40
2016,02,14,18,26,11.40
2016,02,14,18,27,11.30
2016,02,14,18,28,11.30
2016,02,14,18,29,11.30
2016,02,14,18,30,11.30
2016,02,14,18,31,11.30
2016,02,14,18,32,11.30
2016,02,14,18,33,11.30
2016,02,14,18,34,11.20
2016,02,14,18,35,11.20
2016,02,14,18,36,11.20
2016,02,14,18,37,11.20
2016,02,14,18,38,11.10
2016,02,14,18,39,11.10
2016,02,14,18,40,11.10
2016,02,14,18,41,11.10
2016,02,14,18,42,11.10
2016,02,14,18,43,11.00
2016,02,14,18,44,11.00
2016,02,14,18,45,11.00
2016,02,14,18,46,10.90
2016,02,14,18,47,10.90
2016,02,14,18,48,10.90
2016,02,14,18,49,10.90
2016,02,14,18,50,10.90
2016,02,14,18,51,10.90
2016,02,14,18,52,10.80
2016,02,14,18,53,10.80
2016,02,14,18,54,10.80
2016,02,14,18,55,10.80
2016,02,14,18,56,10.80
2016,02,14,18,57,10.90
2016,02,14,18,58,10.90
2016,02,14,18,59,10.90
2016,02,14,19,00,10.80
2016,02,14,19,01,10.80
2016,02,14,19,02,10.80
2016,02,14,19,03,10.80
2016,02,14,19,04,10.80
2016,02,14,19,05,10.80
2016,02,14,19,06,10.80
2016,02,14,19,07,10.80
2016,02,14,19,08,10.80
2016,02,14,19,09,10.80
2016,02,14,19,10,10.80
2016,02,14,19,11,10.80
2016,02,14,19,12,10.80
2016,02,14,19,13,10.80
2016,02,14,19,14,10.80
2016,02,14,19,15,10.70
2016,02,14,19,16,10.70
2016,02,14,19,17,10.70
2016,02,14,19,18,10.70
2016,02,14,19,19,10.70
2016,02,14,19,20,10.70
2016,02,14,19,21,10.70
2016,02,14,19,22,10.70
2016,02,14,19,23,10.70
2016,02,14,19,24,10.60
2016,02,14,19,25,10.60
2016,02,14,19,26,10.60
2016,02,14,19,27,10.60
2016,02,14,19,28,10.60
2016,02,14,19,29,10.60
2016,02,14,19,30,10.60
2016,02,14,19,31,10.60
2016,02,14,19,32,10.60
2016,02,14,19,33,10.60
